notre code QR

Villámtérkép további részletek blitzortung!


Csapadékradar további részletek rain snow radar


További állomásunk adatai:

Template documentation
and downloads

And another site

Mobil nézet





No particular awareness of the weather is required.    There are no Weather-warnings

Select another period ( hide this area )

Mértékegység Időszak Custom range Directly to
Metrikus Angol Mindkettő
Napi Heti Havi Évi
use both date-selectors for a custom range
previous Nap
With this date

WeatherUnderground graphs for this period ( click here )


Napi Summary for Kedd 25 Február 2020
Idő Temp. ( °C ) Dew pt. ( °C ) Szél ( km/h ) Érvényes Széllökés ( km/h ) Légnyomás ( hPa ) Humid.( % ) Rainrate ( cm ) Napsugárzás ( W/m2 )
Erős17,4 3,1 21,9 D ( 497/891 ) 21,9 1014,8 62 - 566
Átlag9,1 -2,3 4,8 Szélcsend #83/187 5,9 1008,6 46 - 238 #118/187
Gyenge0,4 -7,0 -   0,0 1002,3 32 -  
Napi Tabular details for Kedd 25 Február 2020
Idő Temp. ( °C ) Dew pt. ( °C ) Szél ( km/h ) Érvényes Széllökés ( km/h ) Légnyomás ( hPa ) Humid.( % ) Rainrate ( cm ) Napsugárzás ( W/m2 )
00:02 6,2 -2,4   Szélcsend   1014,4 54 - -
00:07 6,3 -2,6 3,5 D 3,5 1014,4 53 - -
00:12 6,4 -2,5 3,5 D 3,5 1014,4 53 - -
00:17 6,5 -2,4 1,1 D 1,1 1014,4 53 - -
00:22 6,5 -2,4 1,1 DDK 1,1 1014,8 53 - -
00:33 6,4 -2,7 2,6 D 2,6 1014,4 52 - -
00:38 6,5 -2,7 5,0 D 5,0 1014,1 52 - -
00:43 6,5 -2,7   Szélcsend   1014,1 52 - -
00:53 6,5 -2,7 3,5 D 3,5 1013,8 52 - -
00:58 6,4 -2,7 1,1 D 2,6 1013,8 52 - -
01:03 6,4 -2,7   Szélcsend   1013,8 52 - -
01:08 6,4 -2,7   Szélcsend 1,1 1013,8 52 - -
01:38 6,3 -3,1 1,1 D 1,1 1013,4 51 - -
01:43 6,1 -3,0 1,1 DDK 1,1 1012,8 52 - -
01:49 5,9 -3,2   Szélcsend   1012,8 52 - -
01:54 5,7 -3,1   Szélcsend 2,6 1013,1 53 - -
01:59 5,5 -3,3   Szélcsend   1013,1 53 - -
02:04 5,5 -3,3   Szélcsend   1012,8 53 - -
02:09 5,4 -3,2 2,6 D 2,6 1012,8 54 - -
02:14 5,3 -3,3 1,1 K 1,1 1012,8 54 - -
02:19 5,3 -3,5   Szélcsend 1,1 1012,8 53 - -
02:24 5,3 -3,5 1,1 K 1,1 1012,8 53 - -
02:29 5,3 -3,5 1,1 K 3,5 1012,4 53 - -
02:34 5,4 -3,4   Szélcsend   1012,4 53 - -
02:39 5,4 -3,7 1,1 KÉK 2,6 1012,4 52 - -
02:44 5,4 -3,9 1,1 D 1,1 1012,4 51 - -
02:49 5,4 -3,9 1,1 DK 2,6 1012,1 51 - -
02:54 5,3 -4,0 1,1 DK 1,1 1012,1 51 - -
02:59 5,2 -4,1   Szélcsend   1011,7 51 - -
03:04 5,1 -4,2   Szélcsend   1011,7 51 - -
03:10 5,0 -4,3   Szélcsend 1,1 1011,7 51 - -
03:15 4,9 -4,4   Szélcsend   1011,7 51 - -
03:20 4,8 -4,7   Szélcsend   1011,4 50 - -
03:25 4,8 -4,7   Szélcsend   1011,4 50 - -
03:30 4,6 -4,9   Szélcsend   1011,4 50 - -
03:35 4,4 -5,1   Szélcsend   1011,1 50 - -
03:40 4,2 -5,3   Szélcsend   1011,4 50 - -
03:45 3,8 -5,7   Szélcsend   1011,4 50 - -
03:50 3,2 -6,0   Szélcsend   1011,4 51 - -
03:55 3,1 -5,8   Szélcsend   1011,4 52 - -
04:00 3,1 -5,6   Szélcsend   1011,4 53 - -
04:05 3,0 -5,6 1,1 DK 1,1 1011,4 53 - -
04:10 3,1 -5,6   Szélcsend   1011,1 53 - -
04:15 3,2 -5,5   Szélcsend   1011,1 53 - -
04:25 3,1 -5,6   Szélcsend   1011,1 53 - -
04:30 2,9 -5,7   Szélcsend   1011,4 53 - -
04:36 2,7 -5,9   Szélcsend   1011,1 53 - -
04:41 2,4 -6,2   Szélcsend   1011,1 53 - -
04:46 2,1 -6,2   Szélcsend   1011,1 54 - -
04:51 2,0 -6,1   Szélcsend   1011,1 55 - -
04:56 2,1 -5,8   Szélcsend   1011,1 56 - -
05:01 2,0 -5,9   Szélcsend   1010,7 56 - -
05:06 2,2 -5,4   Szélcsend   1010,7 57 - -
05:11 2,2 -5,4   Szélcsend   1010,7 57 - -
05:16 2,2 -5,7   Szélcsend   1010,7 56 - -
05:21 2,0 -5,9   Szélcsend   1011,1 56 - -
05:26 1,8 -6,0   Szélcsend   1010,7 56 - -
05:31 1,7 -5,9   Szélcsend   1010,7 57 - -
05:36 1,7 -5,7   Szélcsend   1010,7 58 - -
05:41 1,9 -5,5   Szélcsend   1010,7 58 - -
05:46 2,0 -5,6   Szélcsend   1010,7 57 - -
05:51 2,1 -5,5   Szélcsend   1010,7 57 - -
05:57 2,1 -5,8   Szélcsend   1010,7 56 - -
06:02 2,2 -5,7   Szélcsend   1010,7 56 - -
06:07 2,3 -5,6   Szélcsend   1010,7 56 - -
06:12 2,2 -5,9   Szélcsend   1010,7 55 - -
06:22 2,3 -5,8   Szélcsend   1010,7 55 - -
06:27 2,1 -6,0   Szélcsend   1010,4 55 - -
06:32 1,2 -6,8   Szélcsend 1,1 1010,4 55 - -
06:37 0,5 -7,0   Szélcsend   1010,0 57 - 3
06:42 0,4 -6,5   Szélcsend   1010,0 60 - 5
06:47 0,4 -6,5   Szélcsend   1010,4 60 - 7
06:52 0,5 -6,2   Szélcsend   1010,0 61 - 9
06:57 0,6 -6,1   Szélcsend   1010,0 61 - 12
07:02 0,7 -6,0   Szélcsend   1010,0 61 - 13
07:07 0,8 -5,9   Szélcsend   1010,0 61 - 16
07:12 1,1 -5,6   Szélcsend   1010,0 61 - 18
07:17 1,4 -5,5   Szélcsend   1010,0 60 - 20
07:23 1,6 -5,3   Szélcsend   1010,0 60 - 22
07:28 1,6 -5,3   Szélcsend   1010,0 60 - 23
07:33 1,5 -5,2   Szélcsend   1010,0 61 - 25
07:38 1,6 -4,9   Szélcsend   1010,0 62 - 26
07:43 1,8 -4,7   Szélcsend   1010,0 62 - 28
07:48 2,0 -4,5   Szélcsend   1009,7 62 - 56
07:53 2,3 -4,2   Szélcsend   1009,7 62 - 31
07:58 2,7 -3,9   Szélcsend   1010,0 62 - 51
08:03 3,1 -3,5   Szélcsend   1009,7 62 - 63
08:08 5,2 -1,9   Szélcsend   1009,7 60 - 109
08:13 6,3 -2,1   Szélcsend   1009,4 55 - 102
08:18 6,9 -2,3 1,1 D 1,1 1009,4 52 - 109
08:23 7,3 -2,2   Szélcsend   1009,7 51 - 132
08:28 7,8 -4,0   Szélcsend   1009,4 43 - 163
08:33 7,8 -4,3   Szélcsend   1009,4 42 - 179
08:38 7,9 -4,5 2,6 DK 2,6 1009,4 41 - 178
08:44 8,2 -4,6   Szélcsend   1009,4 40 - 195
08:49 8,5 -4,3   Szélcsend   1009,0 40 - 152
08:54 8,8 -4,1   Szélcsend   1009,4 40 - 166
08:59 8,7 -4,2   Szélcsend 1,1 1009,0 40 - 192
09:04 9,0 -3,9   Szélcsend   1009,0 40 - 214
09:09 9,1 -3,8 1,1 K 1,1 1009,0 40 - 232
09:14 9,6 -3,7 2,6 D 2,6 1009,0 39 - 230
09:19 9,3 -3,6   Szélcsend   1009,0 40 - 251
09:24 9,6 -3,3   Szélcsend 1,1 1008,7 40 - 283
09:29 10,0 -3,0   Szélcsend 2,6 1008,7 40 - 285
09:34 10,5 -2,9   Szélcsend   1008,7 39 - 218
09:39 10,5 -3,6 3,5 D 7,2 1008,7 37 - 239
09:44 10,4 -3,7   Szélcsend 2,6 1008,7 37 - 320
09:54 11,2 -3,0 12,2 D 12,2 1008,4 37 - 394
09:59 10,7 -3,0 13,4 D 15,8 1008,4 38 - 367
10:04 10,9 -2,2 5,0 DNY 12,2 1008,4 40 - 400
10:10 11,3 -1,8 11,1 D 15,8 1008,0 40 - 413
10:15 11,3 -2,5 8,7 DDNY 13,4 1008,0 38 - 422
10:20 11,2 -2,3 6,1 D 13,4 1008,4 39 - 422
10:25 11,6 -1,5 14,8 DNY 20,9 1008,0 40 - 424
10:30 11,6 -1,5 13,4 D 13,4 1007,7 40 - 438
10:35 11,9 -1,6 5,0 DNY 12,2 1007,7 39 - 450
10:40 12,3 -1,6 6,1 D 7,2 1007,7 38 - 452
10:45 12,8 -2,3 6,1 D 11,1 1007,7 35 - 455
10:50 12,8 -2,7 8,7 DNY 11,1 1007,7 34 - 460
10:55 12,8 -2,7 3,5 D 11,1 1007,7 34 - 474
11:00 13,0 -2,1 11,1 D 13,4 1007,7 35 - 447
11:05 13,4 -1,8 9,7 DNY 12,2 1007,3 35 - 491
11:10 13,5 -1,7 17,2 D 17,2 1007,3 35 - 504
11:15 13,4 -1,8 8,7 D 9,7 1007,3 35 - 404
11:20 13,8 -1,4 2,6 K 6,1 1007,3 35 - 418
11:25 14,5 -0,8 1,1 DK 6,1 1007,3 35 - 487
11:31 15,1 -0,7 6,1 D 6,1 1007,3 34 - 507
11:36 15,2 -1,0 7,2 DDNY 8,7 1007,0 33 - 475
11:41 15,1 -1,1 8,7 D 8,7 1007,0 33 - 488
11:46 15,3 -0,9 2,6 K 9,7 1007,3 33 - 566
11:51 15,7 -0,5 3,5 D 14,8 1007,0 33 - 559
11:56 15,9 -0,4 5,0 DK 5,0 1006,7 33 - 430
12:01 16,5 0,2 7,2 D 7,2 1006,7 33 - 489
12:06 16,4 -0,3 9,7 DDK 9,7 1006,3 32 - 465
12:11 16,3 -0,4 8,7 DNY 8,7 1006,3 32 - 456
12:16 16,6 0,3 11,1 DNY 12,2 1006,3 33 - 504
12:21 16,5 0,2 14,8 D 14,8 1006,3 33 - 448
12:26 16,1 -0,2 1,1 D 12,2 1006,0 33 - 506
12:31 16,7 -0,1 6,1 D 8,7 1006,0 32 - 512
12:36 16,3 0,0 11,1 DNY 11,1 1006,0 33 - 502
12:41 16,1 -0,2 11,1 DNY 14,8 1005,6 33 - 460
12:46 16,1 0,2 6,1 D 8,7 1005,6 34 - 425
12:51 16,6 0,7 6,1 DK 8,7 1005,6 34 - 411
12:57 16,4 0,1 14,8 DNY 15,8 1005,6 33 - 251
13:02 16,3 0,4 7,2 DK 7,2 1005,3 34 - 375
13:07 16,7 0,8 14,8 D 14,8 1005,3 34 - 327
13:12 16,6 0,7 9,7 DDNY 13,4 1005,6 34 - 392
13:17 16,6 1,1 13,4 D 14,8 1005,3 35 - 423
13:22 17,0 1,4 7,2 D 11,1 1005,0 35 - 329
13:27 16,9 1,3 12,2 D 13,4 1005,0 35 - 408
13:32 16,3 0,8 11,1 D 17,2 1004,6 35 - 218
13:37 16,3 1,2 9,7 D 9,7 1004,6 36 - 207
13:42 16,4 1,3 13,4 DNY 13,4 1004,6 36 - 265
13:47 16,5 1,0 13,4 D 13,4 1004,6 35 - 262
13:52 16,8 1,6 7,2 D 8,7 1004,3 36 - 301
13:57 17,0 1,8 14,8 D 14,8 1004,3 36 - 345
14:02 17,4 2,6 12,2 DDNY 12,2 1004,3 37 - 367
14:07 16,9 2,1 19,5 DNY 19,5 1004,3 37 - 193
14:12 16,6 2,6 18,3 D 18,3 1004,3 39 - 160
14:18 16,4 2,8 14,8 D 20,9 1004,3 40 - 123
14:23 16,3 2,7 11,1 D 13,4 1004,3 40 - 117
14:28 16,1 2,5 13,4 DDNY 13,4 1003,9 40 - 89
14:33 15,9 2,3 9,7 D 14,8 1003,9 40 - 75
14:38 15,8 2,6 9,7 D 9,7 1003,6 41 - 70
14:43 15,7 2,5 8,7 DDNY 8,7 1003,6 41 - 80
14:48 15,7 2,5 7,2 D 7,2 1003,6 41 - 87
14:53 15,8 2,6 7,2 D 7,2 1003,6 41 - 84
14:58 15,9 2,7 5,0 D 8,7 1003,6 41 - 94
15:03 16,0 2,7 7,2 DNY 17,2 1003,6 41 - 100
15:08 16,1 2,5 12,2 DNY 14,8 1003,3 40 - 95
15:13 16,2 2,6 15,8 DDK 15,8 1003,3 40 - 94
15:18 16,3 2,7 11,1 D 11,1 1003,6 40 - 97
15:23 16,4 2,8 7,2 DK 12,2 1002,9 40 - 99
15:28 16,4 2,8 19,5 DNY 19,5 1003,3 40 - 104
15:33 16,5 2,9 11,1 D 11,1 1002,9 40 - 118
15:38 16,6 2,9 20,9 D 20,9 1002,9 40 - 117
15:44 16,6 2,9 15,8 DNY 15,8 1002,9 40 - 116
15:49 16,7 3,0 17,2 D 17,2 1002,9 40 - 120
15:54 16,8 3,1 15,8 D 18,3 1002,9 40 - 99
15:59 16,6 2,9 21,9 DNY 21,9 1002,9 40 - 80
16:04 16,6 2,9 11,1 D 17,2 1002,9 40 - 74
16:09 16,5 2,9 11,1 D 11,1 1002,6 40 - 62
16:14 16,3 2,7 11,1 DDNY 13,4 1002,6 40 - 58
16:19 16,2 2,9 17,2 D 17,2 1002,3 41 - 47
16:24 16,0 2,7 14,8 DNY 17,2 1002,3 41 - 39
16:29 15,8 2,9 15,8 DNY 15,8 1002,3 42 - 32
16:34 15,6 2,7 12,2 DNY 13,4 1002,6 42 - 27
Napi Summary for Kedd 25 Február 2020
Idő Temp. ( °C ) Dew pt. ( °C ) Szél ( km/h ) Érvényes Széllökés ( km/h ) Légnyomás ( hPa ) Humid.( % ) Rainrate ( cm ) Napsugárzás ( W/m2 )
Erős17,4 3,1 21,9 D ( 497/891 ) 21,9 1014,8 62 - 566
Átlag9,1 -2,3 4,8 Szélcsend #83/187 5,9 1008,6 46 - 238 #118/187
Gyenge0,4 -7,0 -   0,0 1002,3 32 -  
Napi Tabular details for Kedd 25 Február 2020
Idő Temp. ( °C ) Dew pt. ( °C ) Szél ( km/h ) Érvényes Széllökés ( km/h ) Légnyomás ( hPa ) Humid.( % ) Rainrate ( cm ) Napsugárzás ( W/m2 )
00:02 6,2 -2,4   Szélcsend   1014,4 54 - -
00:07 6,3 -2,6 3,5 D 3,5 1014,4 53 - -
00:12 6,4 -2,5 3,5 D 3,5 1014,4 53 - -
00:17 6,5 -2,4 1,1 D 1,1 1014,4 53 - -
00:22 6,5 -2,4 1,1 DDK 1,1 1014,8 53 - -
00:33 6,4 -2,7 2,6 D 2,6 1014,4 52 - -
00:38 6,5 -2,7 5,0 D 5,0 1014,1 52 - -
00:43 6,5 -2,7   Szélcsend   1014,1 52 - -
00:53 6,5 -2,7 3,5 D 3,5 1013,8 52 - -
00:58 6,4 -2,7 1,1 D 2,6 1013,8 52 - -
01:03 6,4 -2,7   Szélcsend   1013,8 52 - -
01:08 6,4 -2,7   Szélcsend 1,1 1013,8 52 - -
01:38 6,3 -3,1 1,1 D 1,1 1013,4 51 - -
01:43 6,1 -3,0 1,1 DDK 1,1 1012,8 52 - -
01:49 5,9 -3,2   Szélcsend   1012,8 52 - -
01:54 5,7 -3,1   Szélcsend 2,6 1013,1 53 - -
01:59 5,5 -3,3   Szélcsend   1013,1 53 - -
02:04 5,5 -3,3   Szélcsend   1012,8 53 - -
02:09 5,4 -3,2 2,6 D 2,6 1012,8 54 - -
02:14 5,3 -3,3 1,1 K 1,1 1012,8 54 - -
02:19 5,3 -3,5   Szélcsend 1,1 1012,8 53 - -
02:24 5,3 -3,5 1,1 K 1,1 1012,8 53 - -
02:29 5,3 -3,5 1,1 K 3,5 1012,4 53 - -
02:34 5,4 -3,4   Szélcsend   1012,4 53 - -
02:39 5,4 -3,7 1,1 KÉK 2,6 1012,4 52 - -
02:44 5,4 -3,9 1,1 D 1,1 1012,4 51 - -
02:49 5,4 -3,9 1,1 DK 2,6 1012,1 51 - -
02:54 5,3 -4,0 1,1 DK 1,1 1012,1 51 - -
02:59 5,2 -4,1   Szélcsend   1011,7 51 - -
03:04 5,1 -4,2   Szélcsend   1011,7 51 - -
03:10 5,0 -4,3   Szélcsend 1,1 1011,7 51 - -
03:15 4,9 -4,4   Szélcsend   1011,7 51 - -
03:20 4,8 -4,7   Szélcsend   1011,4 50 - -
03:25 4,8 -4,7   Szélcsend   1011,4 50 - -
03:30 4,6 -4,9   Szélcsend   1011,4 50 - -
03:35 4,4 -5,1   Szélcsend   1011,1 50 - -
03:40 4,2 -5,3   Szélcsend   1011,4 50 - -
03:45 3,8 -5,7   Szélcsend   1011,4 50 - -
03:50 3,2 -6,0   Szélcsend   1011,4 51 - -
03:55 3,1 -5,8   Szélcsend   1011,4 52 - -
04:00 3,1 -5,6   Szélcsend   1011,4 53 - -
04:05 3,0 -5,6 1,1 DK 1,1 1011,4 53 - -
04:10 3,1 -5,6   Szélcsend   1011,1 53 - -
04:15 3,2 -5,5   Szélcsend   1011,1 53 - -
04:25 3,1 -5,6   Szélcsend   1011,1 53 - -
04:30 2,9 -5,7   Szélcsend   1011,4 53 - -
04:36 2,7 -5,9   Szélcsend   1011,1 53 - -
04:41 2,4 -6,2   Szélcsend   1011,1 53 - -
04:46 2,1 -6,2   Szélcsend   1011,1 54 - -
04:51 2,0 -6,1   Szélcsend   1011,1 55 - -
04:56 2,1 -5,8   Szélcsend   1011,1 56 - -
05:01 2,0 -5,9   Szélcsend   1010,7 56 - -
05:06 2,2 -5,4   Szélcsend   1010,7 57 - -
05:11 2,2 -5,4   Szélcsend   1010,7 57 - -
05:16 2,2 -5,7   Szélcsend   1010,7 56 - -
05:21 2,0 -5,9   Szélcsend   1011,1 56 - -
05:26 1,8 -6,0   Szélcsend   1010,7 56 - -
05:31 1,7 -5,9   Szélcsend   1010,7 57 - -
05:36 1,7 -5,7   Szélcsend   1010,7 58 - -
05:41 1,9 -5,5   Szélcsend   1010,7 58 - -
05:46 2,0 -5,6   Szélcsend   1010,7 57 - -
05:51 2,1 -5,5   Szélcsend   1010,7 57 - -
05:57 2,1 -5,8   Szélcsend   1010,7 56 - -
06:02 2,2 -5,7   Szélcsend   1010,7 56 - -
06:07 2,3 -5,6   Szélcsend   1010,7 56 - -
06:12 2,2 -5,9   Szélcsend   1010,7 55 - -
06:22 2,3 -5,8   Szélcsend   1010,7 55 - -
06:27 2,1 -6,0   Szélcsend   1010,4 55 - -
06:32 1,2 -6,8   Szélcsend 1,1 1010,4 55 - -
06:37 0,5 -7,0   Szélcsend   1010,0 57 - 3
06:42 0,4 -6,5   Szélcsend   1010,0 60 - 5
06:47 0,4 -6,5   Szélcsend   1010,4 60 - 7
06:52 0,5 -6,2   Szélcsend   1010,0 61 - 9
06:57 0,6 -6,1   Szélcsend   1010,0 61 - 12
07:02 0,7 -6,0   Szélcsend   1010,0 61 - 13
07:07 0,8 -5,9   Szélcsend   1010,0 61 - 16
07:12 1,1 -5,6   Szélcsend   1010,0 61 - 18
07:17 1,4 -5,5   Szélcsend   1010,0 60 - 20
07:23 1,6 -5,3   Szélcsend   1010,0 60 - 22
07:28 1,6 -5,3   Szélcsend   1010,0 60 - 23
07:33 1,5 -5,2   Szélcsend   1010,0 61 - 25
07:38 1,6 -4,9   Szélcsend   1010,0 62 - 26
07:43 1,8 -4,7   Szélcsend   1010,0 62 - 28
07:48 2,0 -4,5   Szélcsend   1009,7 62 - 56
07:53 2,3 -4,2   Szélcsend   1009,7 62 - 31
07:58 2,7 -3,9   Szélcsend   1010,0 62 - 51
08:03 3,1 -3,5   Szélcsend   1009,7 62 - 63
08:08 5,2 -1,9   Szélcsend   1009,7 60 - 109
08:13 6,3 -2,1   Szélcsend   1009,4 55 - 102
08:18 6,9 -2,3 1,1 D 1,1 1009,4 52 - 109
08:23 7,3 -2,2   Szélcsend   1009,7 51 - 132
08:28 7,8 -4,0   Szélcsend   1009,4 43 - 163
08:33 7,8 -4,3   Szélcsend   1009,4 42 - 179
08:38 7,9 -4,5 2,6 DK 2,6 1009,4 41 - 178
08:44 8,2 -4,6   Szélcsend   1009,4 40 - 195
08:49 8,5 -4,3   Szélcsend   1009,0 40 - 152
08:54 8,8 -4,1   Szélcsend   1009,4 40 - 166
08:59 8,7 -4,2   Szélcsend 1,1 1009,0 40 - 192
09:04 9,0 -3,9   Szélcsend   1009,0 40 - 214
09:09 9,1 -3,8 1,1 K 1,1 1009,0 40 - 232
09:14 9,6 -3,7 2,6 D 2,6 1009,0 39 - 230
09:19 9,3 -3,6   Szélcsend   1009,0 40 - 251
09:24 9,6 -3,3   Szélcsend 1,1 1008,7 40 - 283
09:29 10,0 -3,0   Szélcsend 2,6 1008,7 40 - 285
09:34 10,5 -2,9   Szélcsend   1008,7 39 - 218
09:39 10,5 -3,6 3,5 D 7,2 1008,7 37 - 239
09:44 10,4 -3,7   Szélcsend 2,6 1008,7 37 - 320
09:54 11,2 -3,0 12,2 D 12,2 1008,4 37 - 394
09:59 10,7 -3,0 13,4 D 15,8 1008,4 38 - 367
10:04 10,9 -2,2 5,0 DNY 12,2 1008,4 40 - 400
10:10 11,3 -1,8 11,1 D 15,8 1008,0 40 - 413
10:15 11,3 -2,5 8,7 DDNY 13,4 1008,0 38 - 422
10:20 11,2 -2,3 6,1 D 13,4 1008,4 39 - 422
10:25 11,6 -1,5 14,8 DNY 20,9 1008,0 40 - 424
10:30 11,6 -1,5 13,4 D 13,4 1007,7 40 - 438
10:35 11,9 -1,6 5,0 DNY 12,2 1007,7 39 - 450
10:40 12,3 -1,6 6,1 D 7,2 1007,7 38 - 452
10:45 12,8 -2,3 6,1 D 11,1 1007,7 35 - 455
10:50 12,8 -2,7 8,7 DNY 11,1 1007,7 34 - 460
10:55 12,8 -2,7 3,5 D 11,1 1007,7 34 - 474
11:00 13,0 -2,1 11,1 D 13,4 1007,7 35 - 447
11:05 13,4 -1,8 9,7 DNY 12,2 1007,3 35 - 491
11:10 13,5 -1,7 17,2 D 17,2 1007,3 35 - 504
11:15 13,4 -1,8 8,7 D 9,7 1007,3 35 - 404
11:20 13,8 -1,4 2,6 K 6,1 1007,3 35 - 418
11:25 14,5 -0,8 1,1 DK 6,1 1007,3 35 - 487
11:31 15,1 -0,7 6,1 D 6,1 1007,3 34 - 507
11:36 15,2 -1,0 7,2 DDNY 8,7 1007,0 33 - 475
11:41 15,1 -1,1 8,7 D 8,7 1007,0 33 - 488
11:46 15,3 -0,9 2,6 K 9,7 1007,3 33 - 566
11:51 15,7 -0,5 3,5 D 14,8 1007,0 33 - 559
11:56 15,9 -0,4 5,0 DK 5,0 1006,7 33 - 430
12:01 16,5 0,2 7,2 D 7,2 1006,7 33 - 489
12:06 16,4 -0,3 9,7 DDK 9,7 1006,3 32 - 465
12:11 16,3 -0,4 8,7 DNY 8,7 1006,3 32 - 456
12:16 16,6 0,3 11,1 DNY 12,2 1006,3 33 - 504
12:21 16,5 0,2 14,8 D 14,8 1006,3 33 - 448
12:26 16,1 -0,2 1,1 D 12,2 1006,0 33 - 506
12:31 16,7 -0,1 6,1 D 8,7 1006,0 32 - 512
12:36 16,3 0,0 11,1 DNY 11,1 1006,0 33 - 502
12:41 16,1 -0,2 11,1 DNY 14,8 1005,6 33 - 460
12:46 16,1 0,2 6,1 D 8,7 1005,6 34 - 425
12:51 16,6 0,7 6,1 DK 8,7 1005,6 34 - 411
12:57 16,4 0,1 14,8 DNY 15,8 1005,6 33 - 251
13:02 16,3 0,4 7,2 DK 7,2 1005,3 34 - 375
13:07 16,7 0,8 14,8 D 14,8 1005,3 34 - 327
13:12 16,6 0,7 9,7 DDNY 13,4 1005,6 34 - 392
13:17 16,6 1,1 13,4 D 14,8 1005,3 35 - 423
13:22 17,0 1,4 7,2 D 11,1 1005,0 35 - 329
13:27 16,9 1,3 12,2 D 13,4 1005,0 35 - 408
13:32 16,3 0,8 11,1 D 17,2 1004,6 35 - 218
13:37 16,3 1,2 9,7 D 9,7 1004,6 36 - 207
13:42 16,4 1,3 13,4 DNY 13,4 1004,6 36 - 265
13:47 16,5 1,0 13,4 D 13,4 1004,6 35 - 262
13:52 16,8 1,6 7,2 D 8,7 1004,3 36 - 301
13:57 17,0 1,8 14,8 D 14,8 1004,3 36 - 345
14:02 17,4 2,6 12,2 DDNY 12,2 1004,3 37 - 367
14:07 16,9 2,1 19,5 DNY 19,5 1004,3 37 - 193
14:12 16,6 2,6 18,3 D 18,3 1004,3 39 - 160
14:18 16,4 2,8 14,8 D 20,9 1004,3 40 - 123
14:23 16,3 2,7 11,1 D 13,4 1004,3 40 - 117
14:28 16,1 2,5 13,4 DDNY 13,4 1003,9 40 - 89
14:33 15,9 2,3 9,7 D 14,8 1003,9 40 - 75
14:38 15,8 2,6 9,7 D 9,7 1003,6 41 - 70
14:43 15,7 2,5 8,7 DDNY 8,7 1003,6 41 - 80
14:48 15,7 2,5 7,2 D 7,2 1003,6 41 - 87
14:53 15,8 2,6 7,2 D 7,2 1003,6 41 - 84
14:58 15,9 2,7 5,0 D 8,7 1003,6 41 - 94
15:03 16,0 2,7 7,2 DNY 17,2 1003,6 41 - 100
15:08 16,1 2,5 12,2 DNY 14,8 1003,3 40 - 95
15:13 16,2 2,6 15,8 DDK 15,8 1003,3 40 - 94
15:18 16,3 2,7 11,1 D 11,1 1003,6 40 - 97
15:23 16,4 2,8 7,2 DK 12,2 1002,9 40 - 99
15:28 16,4 2,8 19,5 DNY 19,5 1003,3 40 - 104
15:33 16,5 2,9 11,1 D 11,1 1002,9 40 - 118
15:38 16,6 2,9 20,9 D 20,9 1002,9 40 - 117
15:44 16,6 2,9 15,8 DNY 15,8 1002,9 40 - 116
15:49 16,7 3,0 17,2 D 17,2 1002,9 40 - 120
15:54 16,8 3,1 15,8 D 18,3 1002,9 40 - 99
15:59 16,6 2,9 21,9 DNY 21,9 1002,9 40 - 80
16:04 16,6 2,9 11,1 D 17,2 1002,9 40 - 74
16:09 16,5 2,9 11,1 D 11,1 1002,6 40 - 62
16:14 16,3 2,7 11,1 DDNY 13,4 1002,6 40 - 58
16:19 16,2 2,9 17,2 D 17,2 1002,3 41 - 47
16:24 16,0 2,7 14,8 DNY 17,2 1002,3 41 - 39
16:29 15,8 2,9 15,8 DNY 15,8 1002,3 42 - 32
16:34 15,6 2,7 12,2 DNY 13,4 1002,6 42 - 27

Download your copy of this data-set  here

Our weather-data as stored at Weather Underground. Eredeti script Jim McMurry. Adapted for the template by Leuven-Template.eu

Készülékünk:

Weather-program
Meteobridge

Weather-server
My Computer

Meteobridge

My Computer